Time,TemperatureF,DewpointF,PressureIn,WindDirection,WindDirectionDegrees,WindSpeedMPH,WindSpeedGustMPH,Humidity,HourlyPrecipIn,Conditions,Clouds,dailyrainin,SolarRadiationWatts/m^2,SoftwareType,DateUTC
2013-04-04 00:00:00,29.1,17.3,30.25,SSE,162,0.0,0.0,61,0.00,,SKC,0.00,0.00,VWS V14.01,2013-04-04 05:00:00,
2013-04-04 00:06:00,28.8,17.4,30.25,SSE,162,0.0,0.0,62,0.00,,SKC,0.00,0.00,VWS V14.01,2013-04-04 05:06:00,
2013-04-04 00:11:00,28.7,17.7,30.25,SSE,162,0.0,0.0,63,0.00,,SKC,0.00,0.00,VWS V14.01,2013-04-04 05:11:00,
2013-04-04 00:16:00,28.8,17.1,30.24,SSE,162,2.0,2.0,61,0.00,,SKC,0.00,0.00,VWS V14.01,2013-04-04 05:16:00,
2013-04-04 00:21:00,28.9,16.4,30.24,SSE,162,1.0,4.0,59,0.00,,SKC,0.00,0.00,VWS V14.01,2013-04-04 05:21:00,
2013-04-04 00:26:00,29.0,16.1,30.24,SSE,162,1.0,4.0,58,0.00,,SKC,0.00,0.00,VWS V14.01,2013-04-04 05:26:00,
2013-04-04 00:31:00,29.0,16.1,30.24,SSE,162,1.0,4.0,58,0.00,,SKC,0.00,0.00,VWS V14.01,2013-04-04 05:31:00,
2013-04-04 00:36:00,29.1,15.8,30.24,SSE,162,0.0,4.0,57,0.00,,SKC,0.00,0.00,VWS V14.01,2013-04-04 05:36:00,
2013-04-04 00:41:00,28.9,15.6,30.24,SSE,162,0.0,0.0,57,0.00,,SKC,0.00,0.00,VWS V14.01,2013-04-04 05:41:00,
2013-04-04 00:46:00,28.9,15.6,30.24,SSE,162,0.0,0.0,57,0.00,,SKC,0.00,0.00,VWS V14.01,2013-04-04 05:46:00,
2013-04-04 00:51:00,29.0,16.1,30.24,SSE,162,0.0,0.0,58,0.00,,SKC,0.00,0.00,VWS V14.01,2013-04-04 05:51:00,
2013-04-04 00:57:00,28.8,15.5,30.24,SSE,162,0.0,0.0,57,0.00,,SKC,0.00,0.00,VWS V14.01,2013-04-04 05:57:00,
2013-04-04 01:02:00,28.9,15.6,30.24,SSE,162,0.0,0.0,57,0.00,,SKC,0.00,0.00,VWS V14.01,2013-04-04 06:02:00,
2013-04-04 01:07:00,28.9,15.6,30.24,SSE,162,2.0,4.0,57,0.00,,SKC,0.00,0.00,VWS V14.01,2013-04-04 06:07:00,
2013-04-04 01:12:00,28.9,15.2,30.24,SSE,162,2.0,4.0,56,0.00,,SKC,0.00,0.00,VWS V14.01,2013-04-04 06:12:00,
2013-04-04 01:17:00,28.7,15.4,30.23,SSE,162,2.0,4.0,57,0.00,,SKC,0.00,0.00,VWS V14.01,2013-04-04 06:17:00,
2013-04-04 01:22:00,28.7,15.0,30.23,SSE,162,2.0,4.0,56,0.00,,SKC,0.00,0.00,VWS V14.01,2013-04-04 06:22:00,
2013-04-04 01:27:00,28.8,14.7,30.23,SSE,162,4.0,4.0,55,0.00,,SKC,0.00,0.00,VWS V14.01,2013-04-04 06:27:00,
2013-04-04 01:32:00,28.7,14.6,30.23,SSE,162,4.0,5.0,55,0.00,,SKC,0.00,0.00,VWS V14.01,2013-04-04 06:32:00,
2013-04-04 01:37:00,28.6,14.5,30.23,SSE,162,4.0,5.0,55,0.00,,SKC,0.00,0.00,VWS V14.01,2013-04-04 06:37:00,
2013-04-04 01:42:00,28.6,14.9,30.22,SSE,162,2.0,4.0,56,0.00,,SKC,0.00,0.00,VWS V14.01,2013-04-04 06:42:00,
2013-04-04 01:47:00,28.7,14.6,30.22,SSE,162,2.0,5.0,55,0.00,,SKC,0.00,0.00,VWS V14.01,2013-04-04 06:47:00,
2013-04-04 01:52:00,28.8,14.7,30.22,SSE,162,5.0,5.0,55,0.00,,SKC,0.00,0.00,VWS V14.01,2013-04-04 06:52:00,
2013-04-04 01:57:00,28.9,14.8,30.22,SSE,162,5.0,5.0,55,0.00,,SKC,0.00,0.00,VWS V14.01,2013-04-04 06:57:00,
2013-04-04 02:02:00,28.9,14.8,30.22,SSE,162,4.0,5.0,55,0.00,,SKC,0.00,0.00,VWS V14.01,2013-04-04 07:02:00,
2013-04-04 02:07:00,29.0,14.9,30.21,SSE,162,5.0,5.0,55,0.00,,SKC,0.00,0.00,VWS V14.01,2013-04-04 07:07:00,
2013-04-04 02:12:00,28.8,15.1,30.21,SSE,162,4.0,5.0,56,0.00,,SKC,0.00,0.00,VWS V14.01,2013-04-04 07:12:00,
2013-04-04 02:17:00,28.7,15.4,30.21,SSE,162,4.0,5.0,57,0.00,,SKC,0.00,0.00,VWS V14.01,2013-04-04 07:17:00,
2013-04-04 02:22:00,28.5,15.2,30.20,SSE,162,4.0,4.0,57,0.00,,SKC,0.00,0.00,VWS V14.01,2013-04-04 07:22:00,
2013-04-04 02:27:00,28.8,14.7,30.20,SSE,162,5.0,5.0,55,0.00,,SKC,0.00,0.00,VWS V14.01,2013-04-04 07:27:00,
2013-04-04 02:32:00,29.1,14.5,30.19,South,185,5.0,7.0,54,0.00,,SKC,0.00,0.00,VWS V14.01,2013-04-04 07:32:00,
2013-04-04 02:37:00,29.1,14.1,30.19,South,185,6.0,7.0,53,0.00,,SKC,0.00,0.00,VWS V14.01,2013-04-04 07:37:00,
2013-04-04 02:42:00,29.1,14.1,30.19,South,185,3.0,5.0,53,0.00,,SKC,0.00,0.00,VWS V14.01,2013-04-04 07:42:00,
2013-04-04 02:47:00,29.0,13.6,30.19,South,186,4.0,5.0,52,0.00,,SKC,0.00,0.00,VWS V14.01,2013-04-04 07:47:00,
2013-04-04 02:52:00,29.1,14.1,30.19,South,186,2.0,4.0,53,0.00,,SKC,0.00,0.00,VWS V14.01,2013-04-04 07:52:00,
2013-04-04 02:57:00,29.2,14.2,30.19,South,187,5.0,6.0,53,0.00,,SKC,0.00,0.00,VWS V14.01,2013-04-04 07:57:00,
2013-04-04 03:02:00,29.3,13.9,30.18,South,187,4.0,5.0,52,0.00,,SKC,0.00,0.00,VWS V14.01,2013-04-04 08:02:00,
2013-04-04 03:07:00,29.4,13.5,30.18,South,187,3.0,6.0,51,0.00,,SKC,0.00,0.00,VWS V14.01,2013-04-04 08:07:00,
2013-04-04 03:12:00,29.3,13.4,30.18,South,187,3.0,5.0,51,0.00,,SKC,0.00,0.00,VWS V14.01,2013-04-04 08:12:00,
2013-04-04 03:17:00,29.4,14.0,30.18,South,188,4.0,6.0,52,0.00,,SKC,0.00,0.00,VWS V14.01,2013-04-04 08:17:00,
2013-04-04 03:22:00,29.5,14.1,30.17,South,189,5.0,6.0,52,0.00,,SKC,0.00,0.00,VWS V14.01,2013-04-04 08:22:00,
2013-04-04 03:27:00,29.6,14.1,30.17,South,189,4.0,7.0,52,0.00,,SKC,0.00,0.00,VWS V14.01,2013-04-04 08:27:00,
2013-04-04 03:32:00,29.6,14.1,30.17,South,189,3.0,5.0,52,0.00,,SKC,0.00,0.00,VWS V14.01,2013-04-04 08:32:00,
2013-04-04 03:37:00,29.7,14.2,30.17,SSW,192,5.0,6.0,52,0.00,,SKC,0.00,0.00,VWS V14.01,2013-04-04 08:37:00,
2013-04-04 03:42:00,29.8,14.3,30.17,SSW,192,3.0,4.0,52,0.00,,SKC,0.00,0.00,VWS V14.01,2013-04-04 08:42:00,
2013-04-04 03:47:00,29.7,14.2,30.17,SSW,192,4.0,5.0,52,0.00,,SKC,0.00,0.00,VWS V14.01,2013-04-04 08:47:00,
2013-04-04 03:52:00,29.7,14.2,30.17,SSW,192,4.0,4.0,52,0.00,,SKC,0.00,0.00,VWS V14.01,2013-04-04 08:52:00,
2013-04-04 03:57:00,29.6,14.1,30.17,SSW,192,3.0,5.0,52,0.00,,SKC,0.00,0.00,VWS V14.01,2013-04-04 08:57:00,
2013-04-04 04:02:00,29.5,14.5,30.17,SSW,192,2.0,3.0,53,0.00,,SKC,0.00,0.00,VWS V14.01,2013-04-04 09:02:00,
2013-04-04 04:08:00,29.5,14.5,30.17,SSW,192,4.0,4.0,53,0.00,,SKC,0.00,0.00,VWS V14.01,2013-04-04 09:08:00,
2013-04-04 04:13:00,29.7,14.7,30.17,SSW,192,3.0,5.0,53,0.00,,SKC,0.00,0.00,VWS V14.01,2013-04-04 09:13:00,
2013-04-04 04:18:00,29.5,14.5,30.17,SSW,192,2.0,5.0,53,0.00,,SKC,0.00,0.00,VWS V14.01,2013-04-04 09:18:00,
2013-04-04 04:23:00,29.2,14.2,30.17,SSW,192,3.0,3.0,53,0.00,,SKC,0.00,0.00,VWS V14.01,2013-04-04 09:23:00,
2013-04-04 04:28:00,29.2,14.6,30.17,SSW,192,4.0,4.0,54,0.00,,SKC,0.00,0.00,VWS V14.01,2013-04-04 09:28:00,
2013-04-04 04:33:00,29.2,14.6,30.16,SSW,192,4.0,4.0,54,0.00,,SKC,0.00,0.00,VWS V14.01,2013-04-04 09:33:00,
2013-04-04 04:38:00,29.3,14.7,30.16,SSW,192,3.0,4.0,54,0.00,,SKC,0.00,0.00,VWS V14.01,2013-04-04 09:38:00,
2013-04-04 04:43:00,29.2,14.6,30.16,SSW,192,3.0,4.0,54,0.00,,SKC,0.00,0.00,VWS V14.01,2013-04-04 09:43:00,
2013-04-04 04:48:00,29.1,14.5,30.16,SSW,192,3.0,4.0,54,0.00,,SKC,0.00,0.00,VWS V14.01,2013-04-04 09:48:00,
2013-04-04 04:53:00,29.0,14.4,30.16,SSW,192,4.0,4.0,54,0.00,,SKC,0.00,0.00,VWS V14.01,2013-04-04 09:53:00,
2013-04-04 04:58:00,28.9,14.4,30.16,SSW,192,3.0,4.0,54,0.00,,SKC,0.00,0.00,VWS V14.01,2013-04-04 09:58:00,
2013-04-04 05:03:00,28.9,14.8,30.16,SSW,192,2.0,3.0,55,0.00,,SKC,0.00,0.00,VWS V14.01,2013-04-04 10:03:00,
2013-04-04 05:08:00,28.7,15.0,30.15,SSW,192,2.0,3.0,56,0.00,,SKC,0.00,0.00,VWS V14.01,2013-04-04 10:08:00,
2013-04-04 05:13:00,28.5,15.2,30.15,SSW,192,0.0,2.0,57,0.00,,SKC,0.00,0.00,VWS V14.01,2013-04-04 10:13:00,
2013-04-04 05:18:00,28.1,15.2,30.15,SSW,192,0.0,2.0,58,0.00,,SKC,0.00,0.00,VWS V14.01,2013-04-04 10:18:00,
2013-04-04 05:23:00,28.6,16.1,30.15,SSW,192,3.0,3.0,59,0.00,,SKC,0.00,0.00,VWS V14.01,2013-04-04 10:23:00,
2013-04-04 05:28:00,29.5,16.2,30.15,SSW,192,3.0,4.0,57,0.00,,SKC,0.00,0.00,VWS V14.01,2013-04-04 10:28:00,
2013-04-04 05:33:00,29.9,16.1,30.15,SSW,192,4.0,4.0,56,0.00,,SKC,0.00,0.00,VWS V14.01,2013-04-04 10:33:00,
2013-04-04 05:38:00,29.9,15.7,30.15,SSW,192,4.0,5.0,55,0.00,,SKC,0.00,0.00,VWS V14.01,2013-04-04 10:38:00,
2013-04-04 05:43:00,29.8,16.0,30.15,SSW,192,5.0,6.0,56,0.00,,SKC,0.00,0.00,VWS V14.01,2013-04-04 10:43:00,
2013-04-04 05:48:00,29.7,16.4,30.15,SSW,192,5.0,6.0,57,0.00,,SKC,0.00,0.00,VWS V14.01,2013-04-04 10:48:00,
2013-04-04 05:53:00,29.6,16.6,30.15,SSW,192,4.0,5.0,58,0.00,,SKC,0.00,0.00,VWS V14.01,2013-04-04 10:53:00,
2013-04-04 05:58:00,29.4,16.9,30.15,SSW,192,4.0,5.0,59,0.00,,SKC,0.00,0.00,VWS V14.01,2013-04-04 10:58:00,
2013-04-04 06:03:00,29.6,17.4,30.15,SSW,198,6.0,6.0,60,0.00,,SKC,0.00,0.00,VWS V14.01,2013-04-04 11:03:00,
2013-04-04 06:08:00,29.8,17.6,30.15,SSW,209,5.0,7.0,60,0.00,,SKC,0.00,0.00,VWS V14.01,2013-04-04 11:08:00,
2013-04-04 06:13:00,29.9,17.7,30.15,SSW,212,5.0,8.0,60,0.00,,SKC,0.00,0.00,VWS V14.01,2013-04-04 11:13:00,
2013-04-04 06:18:00,29.9,18.1,30.15,SW,215,5.0,8.0,61,0.00,,SKC,0.00,0.00,VWS V14.01,2013-04-04 11:18:00,
2013-04-04 06:23:00,29.7,18.3,30.15,SW,219,5.0,8.0,62,0.00,,SKC,0.00,0.00,VWS V14.01,2013-04-04 11:23:00,
2013-04-04 06:28:00,29.6,18.6,30.15,SW,217,7.0,9.0,63,0.00,,SKC,0.00,0.00,VWS V14.01,2013-04-04 11:28:00,
2013-04-04 06:34:00,29.8,18.8,30.15,SW,216,7.0,9.0,63,0.00,,SKC,0.00,7.00,VWS V14.01,2013-04-04 11:34:00,
2013-04-04 06:39:00,29.6,18.9,30.15,SW,214,6.0,9.0,64,0.00,,SKC,0.00,9.00,VWS V14.01,2013-04-04 11:39:00,
2013-04-04 06:44:00,29.5,18.8,30.15,SW,214,5.0,8.0,64,0.00,,SKC,0.00,12.00,VWS V14.01,2013-04-04 11:44:00,
2013-04-04 06:49:00,29.6,19.3,30.15,SW,215,7.0,10.0,65,0.00,,SKC,0.00,18.00,VWS V14.01,2013-04-04 11:49:00,
2013-04-04 06:54:00,29.7,19.4,30.15,SSW,213,7.0,8.0,65,0.00,,SKC,0.00,21.00,VWS V14.01,2013-04-04 11:54:00,
2013-04-04 06:59:00,29.7,19.4,30.15,SSW,212,5.0,8.0,65,0.00,,SKC,0.00,28.00,VWS V14.01,2013-04-04 11:59:00,
2013-04-04 07:04:00,29.8,19.5,30.15,SSW,212,7.0,8.0,65,0.00,,SKC,0.00,39.00,VWS V14.01,2013-04-04 12:04:00,
2013-04-04 07:09:00,29.8,19.8,30.15,SSW,212,5.0,8.0,66,0.00,,SKC,0.00,49.00,VWS V14.01,2013-04-04 12:09:00,
2013-04-04 07:15:00,30.1,20.1,30.14,SSW,212,5.0,6.0,66,0.00,,SKC,0.00,63.00,VWS V14.01,2013-04-04 12:15:00,
2013-04-04 07:20:00,30.3,20.0,30.14,SSW,212,4.0,6.0,65,0.00,,SKC,0.00,74.00,VWS V14.01,2013-04-04 12:20:00,
2013-04-04 07:25:00,30.6,20.6,30.14,SSW,212,7.0,8.0,66,0.00,,SKC,0.00,95.00,VWS V14.01,2013-04-04 12:25:00,
2013-04-04 07:30:00,31.0,21.0,30.14,SSW,211,7.0,9.0,66,0.00,,SKC,0.00,113.00,VWS V14.01,2013-04-04 12:30:00,
2013-04-04 07:35:00,31.5,21.5,30.14,SSW,210,6.0,10.0,66,0.00,,SKC,0.00,130.00,VWS V14.01,2013-04-04 12:35:00,
2013-04-04 07:40:00,31.9,21.5,30.14,SSW,205,11.0,12.0,65,0.00,,SKC,0.00,148.00,VWS V14.01,2013-04-04 12:40:00,
2013-04-04 07:45:00,32.4,22.0,30.14,SW,214,7.0,11.0,65,0.00,,SKC,0.00,167.00,VWS V14.01,2013-04-04 12:45:00,
2013-04-04 07:50:00,33.0,22.2,30.14,SW,216,9.0,11.0,64,0.00,,SKC,0.00,179.00,VWS V14.01,2013-04-04 12:50:00,
2013-04-04 07:55:00,33.4,22.2,30.13,SSW,207,8.0,12.0,63,0.00,,SKC,0.00,202.00,VWS V14.01,2013-04-04 12:55:00,
2013-04-04 08:00:00,33.8,22.5,30.13,SSW,212,10.0,14.0,63,0.00,,SKC,0.00,221.00,VWS V14.01,2013-04-04 13:00:00,
2013-04-04 08:05:00,34.3,22.6,30.13,SW,223,10.0,14.0,62,0.00,,SKC,0.00,239.00,VWS V14.01,2013-04-04 13:05:00,
2013-04-04 08:10:00,34.8,22.7,30.13,SW,220,10.0,12.0,61,0.00,,SKC,0.00,257.00,VWS V14.01,2013-04-04 13:10:00,
2013-04-04 08:15:00,35.3,23.2,30.13,SSW,208,11.0,14.0,61,0.00,,SKC,0.00,272.00,VWS V14.01,2013-04-04 13:15:00,
2013-04-04 08:20:00,35.7,23.2,30.13,SW,221,11.0,11.0,60,0.00,,SKC,0.00,290.00,VWS V14.01,2013-04-04 13:20:00,
2013-04-04 08:25:00,36.1,23.2,30.12,SW,225,12.0,13.0,59,0.00,,SKC,0.00,308.00,VWS V14.01,2013-04-04 13:25:00,
2013-04-04 08:30:00,36.5,23.1,30.12,SSW,211,8.0,11.0,58,0.00,,SKC,0.00,318.00,VWS V14.01,2013-04-04 13:30:00,
2013-04-04 08:35:00,36.9,23.5,30.12,SSW,209,10.0,13.0,58,0.00,,SKC,0.00,336.00,VWS V14.01,2013-04-04 13:35:00,
2013-04-04 08:40:00,37.2,23.4,30.11,SW,217,9.0,9.0,57,0.00,,SKC,0.00,352.00,VWS V14.01,2013-04-04 13:40:00,
2013-04-04 08:45:00,37.7,23.4,30.11,SW,223,13.0,15.0,56,0.00,,SKC,0.00,369.00,VWS V14.01,2013-04-04 13:45:00,
2013-04-04 08:50:00,38.0,23.3,30.11,SW,232,10.0,13.0,55,0.00,,SKC,0.00,385.00,VWS V14.01,2013-04-04 13:50:00,
2013-04-04 08:55:00,38.4,23.2,30.10,SSW,202,17.0,19.0,54,0.00,,SKC,0.00,401.00,VWS V14.01,2013-04-04 13:55:00,
2013-04-04 09:00:00,38.6,23.0,30.10,SW,216,16.0,18.0,53,0.00,,SKC,0.00,418.00,VWS V14.01,2013-04-04 14:00:00,
2013-04-04 09:05:00,39.0,23.8,30.10,SSW,211,15.0,20.0,54,0.00,,SKC,0.00,436.00,VWS V14.01,2013-04-04 14:05:00,
2013-04-04 09:10:00,39.4,23.2,30.09,SW,219,9.0,18.0,52,0.00,,SKC,0.00,452.00,VWS V14.01,2013-04-04 14:10:00,
2013-04-04 09:15:00,39.8,23.6,30.09,SW,215,13.0,19.0,52,0.00,,SKC,0.00,464.00,VWS V14.01,2013-04-04 14:15:00,
2013-04-04 09:20:00,40.5,23.8,30.09,SW,224,11.0,16.0,51,0.00,,SKC,0.00,480.00,VWS V14.01,2013-04-04 14:20:00,
2013-04-04 09:25:00,41.1,23.9,30.09,SW,234,11.0,16.0,50,0.00,,SKC,0.00,496.00,VWS V14.01,2013-04-04 14:25:00,
2013-04-04 09:30:00,41.6,23.9,30.08,SSW,207,12.0,20.0,49,0.00,,SKC,0.00,512.00,VWS V14.01,2013-04-04 14:30:00,
2013-04-04 09:35:00,41.8,23.6,30.09,SW,218,11.0,23.0,48,0.00,,SKC,0.00,526.00,VWS V14.01,2013-04-04 14:35:00,
2013-04-04 09:40:00,42.1,23.3,30.08,SW,232,13.0,16.0,47,0.00,,SKC,0.00,536.00,VWS V14.01,2013-04-04 14:40:00,
2013-04-04 09:45:00,42.7,23.9,30.08,SW,219,11.0,16.0,47,0.00,,SKC,0.00,554.00,VWS V14.01,2013-04-04 14:45:00,
2013-04-04 09:50:00,43.5,24.1,30.08,SW,229,16.0,16.0,46,0.00,,SKC,0.00,568.00,VWS V14.01,2013-04-04 14:50:00,
2013-04-04 09:55:00,43.1,23.2,30.08,SW,232,17.0,27.0,45,0.00,,SKC,0.00,578.00,VWS V14.01,2013-04-04 14:55:00,
2013-04-04 10:00:00,43.2,23.3,30.08,SW,217,14.0,21.0,45,0.00,,SKC,0.00,589.00,VWS V14.01,2013-04-04 15:00:00,
2013-04-04 10:05:00,43.4,23.5,30.07,SSW,209,17.0,23.0,45,0.00,,SKC,0.00,603.00,VWS V14.01,2013-04-04 15:05:00,
2013-04-04 10:10:00,43.6,23.7,30.07,SW,227,12.0,18.0,45,0.00,,SKC,0.00,619.00,VWS V14.01,2013-04-04 15:10:00,
2013-04-04 10:15:00,44.0,24.0,30.07,SW,226,13.0,19.0,45,0.00,,SKC,0.00,635.00,VWS V14.01,2013-04-04 15:15:00,
2013-04-04 10:20:00,44.3,23.8,30.07,SW,233,5.0,11.0,44,0.00,,SKC,0.00,645.00,VWS V14.01,2013-04-04 15:20:00,
2013-04-04 10:25:00,44.9,24.3,30.07,SSW,206,15.0,20.0,44,0.00,,SKC,0.00,659.00,VWS V14.01,2013-04-04 15:25:00,
2013-04-04 10:31:00,44.9,24.3,30.07,SSW,207,16.0,17.0,44,0.00,,SKC,0.00,671.00,VWS V14.01,2013-04-04 15:31:00,
2013-04-04 10:36:00,45.3,24.1,30.07,SSW,211,15.0,21.0,43,0.00,,SKC,0.00,684.00,VWS V14.01,2013-04-04 15:36:00,
2013-04-04 10:41:00,45.8,24.0,30.07,WSW,238,14.0,22.0,42,0.00,,SKC,0.00,693.00,VWS V14.01,2013-04-04 15:41:00,
2013-04-04 10:46:00,45.6,23.3,30.07,SW,226,12.0,27.0,41,0.00,,SKC,0.00,703.00,VWS V14.01,2013-04-04 15:46:00,
2013-04-04 10:51:00,46.1,23.1,30.06,SW,217,16.0,20.0,40,0.00,,SKC,0.00,715.00,VWS V14.01,2013-04-04 15:51:00,
2013-04-04 10:56:00,46.4,23.4,30.06,WSW,244,15.0,20.0,40,0.00,,SKC,0.00,724.00,VWS V14.01,2013-04-04 15:56:00,
2013-04-04 11:01:00,46.8,23.8,30.06,WSW,237,17.0,21.0,40,0.00,,SKC,0.00,735.00,VWS V14.01,2013-04-04 16:01:00,
2013-04-04 11:06:00,46.6,23.0,30.06,SW,231,15.0,26.0,39,0.00,,SKC,0.00,745.00,VWS V14.01,2013-04-04 16:06:00,
2013-04-04 11:11:00,46.5,23.5,30.06,SW,221,10.0,21.0,40,0.00,,SKC,0.00,754.00,VWS V14.01,2013-04-04 16:11:00,
2013-04-04 11:17:00,46.9,23.9,30.06,WSW,238,14.0,21.0,40,0.00,,SKC,0.00,763.00,VWS V14.01,2013-04-04 16:17:00,
2013-04-04 11:22:00,47.4,24.3,30.05,SW,219,16.0,22.0,40,0.00,,SKC,0.00,772.00,VWS V14.01,2013-04-04 16:22:00,
2013-04-04 11:27:00,47.5,23.8,30.05,SSW,207,15.0,28.0,39,0.00,,SKC,0.00,780.00,VWS V14.01,2013-04-04 16:27:00,
2013-04-04 11:32:00,47.4,24.3,30.05,SW,218,21.0,24.0,40,0.00,,SKC,0.00,789.00,VWS V14.01,2013-04-04 16:32:00,
2013-04-04 11:37:00,47.9,25.4,30.04,SW,235,15.0,24.0,41,0.00,,SKC,0.00,795.00,VWS V14.01,2013-04-04 16:37:00,
2013-04-04 11:42:00,48.2,25.0,30.04,SW,222,20.0,21.0,40,0.00,,SKC,0.00,803.00,VWS V14.01,2013-04-04 16:42:00,
2013-04-04 11:47:00,48.2,24.4,30.04,WSW,244,13.0,22.0,39,0.00,,SKC,0.00,809.00,VWS V14.01,2013-04-04 16:47:00,
2013-04-04 11:52:00,48.4,24.6,30.04,West,272,11.0,16.0,39,0.00,,SKC,0.00,814.00,VWS V14.01,2013-04-04 16:52:00,
2013-04-04 11:57:00,49.2,25.9,30.04,SW,227,16.0,16.0,40,0.00,,SKC,0.00,819.00,VWS V14.01,2013-04-04 16:57:00,
2013-04-04 12:02:00,49.2,25.3,30.04,SW,225,13.0,26.0,39,0.00,,SKC,0.00,826.00,VWS V14.01,2013-04-04 17:02:00,
2013-04-04 12:07:00,49.1,25.8,30.03,SW,231,13.0,26.0,40,0.00,,SKC,0.00,828.00,VWS V14.01,2013-04-04 17:07:00,
2013-04-04 12:12:00,48.8,26.2,30.03,SW,221,15.0,21.0,41,0.00,,SKC,0.00,833.00,VWS V14.01,2013-04-04 17:12:00,
2013-04-04 12:17:00,48.9,26.2,30.03,SW,219,18.0,23.0,41,0.00,,SKC,0.00,837.00,VWS V14.01,2013-04-04 17:17:00,
2013-04-04 12:22:00,49.2,27.1,30.02,SW,215,8.0,17.0,42,0.00,,SKC,0.00,842.00,VWS V14.01,2013-04-04 17:22:00,
2013-04-04 12:27:00,50.0,26.6,30.02,WSW,248,4.0,17.0,40,0.00,,SKC,0.00,846.00,VWS V14.01,2013-04-04 17:27:00,
2013-04-04 12:32:00,50.1,26.1,30.02,WSW,250,9.0,21.0,39,0.00,,SKC,0.00,849.00,VWS V14.01,2013-04-04 17:32:00,
2013-04-04 12:38:00,50.3,26.9,30.01,SW,223,17.0,21.0,40,0.00,,SKC,0.00,851.00,VWS V14.01,2013-04-04 17:38:00,
2013-04-04 12:43:00,50.5,26.5,30.01,West,265,7.0,15.0,39,0.00,,SKC,0.00,854.00,VWS V14.01,2013-04-04 17:43:00,
2013-04-04 12:48:00,50.6,27.8,30.01,SSW,208,13.0,21.0,41,0.00,,SKC,0.00,856.00,VWS V14.01,2013-04-04 17:48:00,
2013-04-04 12:53:00,50.6,27.2,30.00,WSW,241,8.0,14.0,40,0.00,,SKC,0.00,854.00,VWS V14.01,2013-04-04 17:53:00,
2013-04-04 12:58:00,51.3,27.2,30.00,SW,219,13.0,18.0,39,0.00,,SKC,0.00,856.00,VWS V14.01,2013-04-04 17:58:00,
2013-04-04 13:03:00,51.3,27.2,30.00,SW,231,12.0,17.0,39,0.00,,SKC,0.00,858.00,VWS V14.01,2013-04-04 18:03:00,
2013-04-04 13:08:00,51.5,28.0,29.99,SW,221,23.0,24.0,40,0.00,,SKC,0.00,856.00,VWS V14.01,2013-04-04 18:08:00,
2013-04-04 13:13:00,51.7,28.2,29.99,SW,218,11.0,17.0,40,0.00,,SKC,0.00,858.00,VWS V14.01,2013-04-04 18:13:00,
2013-04-04 13:18:00,52.6,27.7,29.99,SW,221,15.0,17.0,38,0.00,,SKC,0.00,853.00,VWS V14.01,2013-04-04 18:18:00,
2013-04-04 13:23:00,51.8,28.3,29.99,SSW,211,12.0,20.0,40,0.00,,SKC,0.00,854.00,VWS V14.01,2013-04-04 18:23:00,
2013-04-04 13:28:00,51.9,28.4,29.98,SW,216,10.0,20.0,40,0.00,,SKC,0.00,854.00,VWS V14.01,2013-04-04 18:28:00,
2013-04-04 13:33:00,52.6,29.6,29.98,SW,232,7.0,15.0,41,0.00,,SKC,0.00,854.00,VWS V14.01,2013-04-04 18:33:00,
2013-04-04 13:38:00,53.6,28.6,29.98,West,265,9.0,16.0,38,0.00,,SKC,0.00,851.00,VWS V14.01,2013-04-04 18:38:00,
2013-04-04 13:43:00,53.9,28.9,29.98,West,263,11.0,17.0,38,0.00,,SKC,0.00,847.00,VWS V14.01,2013-04-04 18:43:00,
2013-04-04 13:48:00,53.5,29.8,29.98,WSW,242,16.0,19.0,40,0.00,,SKC,0.00,838.00,VWS V14.01,2013-04-04 18:48:00,
2013-04-04 13:53:00,53.6,28.6,29.98,WNW,288,14.0,23.0,38,0.00,,SKC,0.00,838.00,VWS V14.01,2013-04-04 18:53:00,
2013-04-04 13:58:00,53.7,29.4,29.97,WSW,253,12.0,23.0,39,0.00,,SKC,0.00,835.00,VWS V14.01,2013-04-04 18:58:00,
2013-04-04 14:03:00,54.1,29.7,29.97,West,268,8.0,10.0,39,0.00,,SKC,0.00,830.00,VWS V14.01,2013-04-04 19:03:00,
2013-04-04 14:08:00,54.5,31.3,29.96,SW,232,9.0,19.0,41,0.00,,SKC,0.00,823.00,VWS V14.01,2013-04-04 19:08:00,
2013-04-04 14:13:00,54.3,29.9,29.96,SW,236,6.0,18.0,39,0.00,,SKC,0.00,819.00,VWS V14.01,2013-04-04 19:13:00,
2013-04-04 14:18:00,54.5,30.1,29.95,SSW,192,15.0,22.0,39,0.00,,SKC,0.00,814.00,VWS V14.01,2013-04-04 19:18:00,
2013-04-04 14:23:00,54.6,30.8,29.95,WSW,247,12.0,14.0,40,0.00,,SKC,0.00,803.00,VWS V14.01,2013-04-04 19:23:00,
2013-04-04 14:28:00,55.1,30.0,29.95,WSW,247,4.0,17.0,38,0.00,,SKC,0.00,800.00,VWS V14.01,2013-04-04 19:28:00,
2013-04-04 14:33:00,54.5,30.1,29.94,SW,217,9.0,20.0,39,0.00,,SKC,0.00,789.00,VWS V14.01,2013-04-04 19:33:00,
2013-04-04 14:38:00,54.4,31.2,29.94,SW,215,11.0,26.0,41,0.00,,SKC,0.00,782.00,VWS V14.01,2013-04-04 19:38:00,
2013-04-04 14:43:00,55.1,31.2,29.94,SW,226,7.0,15.0,40,0.00,,SKC,0.00,777.00,VWS V14.01,2013-04-04 19:43:00,
2013-04-04 14:48:00,55.6,30.4,29.94,WSW,244,12.0,16.0,38,0.00,,SKC,0.00,768.00,VWS V14.01,2013-04-04 19:48:00,
2013-04-04 14:53:00,55.5,31.6,29.93,SW,215,15.0,19.0,40,0.00,,SKC,0.00,761.00,VWS V14.01,2013-04-04 19:53:00,
2013-04-04 14:58:00,55.6,30.4,29.93,SW,229,15.0,23.0,38,0.00,,SKC,0.00,751.00,VWS V14.01,2013-04-04 19:58:00,
2013-04-04 15:03:00,55.5,31.6,29.92,West,261,12.0,13.0,40,0.00,,SKC,0.00,740.00,VWS V14.01,2013-04-04 20:03:00,
2013-04-04 15:08:00,55.8,31.9,29.92,SW,225,10.0,17.0,40,0.00,,SKC,0.00,733.00,VWS V14.01,2013-04-04 20:08:00,
2013-04-04 15:13:00,55.9,30.7,29.92,West,269,12.0,18.0,38,0.00,,SKC,0.00,721.00,VWS V14.01,2013-04-04 20:13:00,
2013-04-04 15:18:00,55.9,31.3,29.92,SW,222,15.0,19.0,39,0.00,,SKC,0.00,708.00,VWS V14.01,2013-04-04 20:18:00,
2013-04-04 15:23:00,56.1,31.5,29.92,SSW,206,12.0,15.0,39,0.00,,SKC,0.00,700.00,VWS V14.01,2013-04-04 20:23:00,
2013-04-04 15:28:00,56.1,30.9,29.92,SSW,205,21.0,23.0,38,0.00,,SKC,0.00,687.00,VWS V14.01,2013-04-04 20:28:00,
2013-04-04 15:33:00,55.9,32.0,29.92,SW,223,12.0,17.0,40,0.00,,SKC,0.00,682.00,VWS V14.01,2013-04-04 20:33:00,
2013-04-04 15:38:00,56.0,32.7,29.92,SW,216,14.0,17.0,41,0.00,,SKC,0.00,707.00,VWS V14.01,2013-04-04 20:38:00,
2013-04-04 15:43:00,55.9,32.0,29.91,SSW,203,17.0,17.0,40,0.00,,SKC,0.00,334.00,VWS V14.01,2013-04-04 20:43:00,
2013-04-04 15:48:00,56.3,32.9,29.91,SW,223,10.0,17.0,41,0.00,,SKC,0.00,691.00,VWS V14.01,2013-04-04 20:48:00,
2013-04-04 15:53:00,55.6,32.3,29.91,SW,222,13.0,18.0,41,0.00,,SKC,0.00,276.00,VWS V14.01,2013-04-04 20:53:00,
2013-04-04 15:58:00,55.6,32.9,29.92,SW,229,8.0,18.0,42,0.00,,SKC,0.00,243.00,VWS V14.01,2013-04-04 20:58:00,
2013-04-04 16:03:00,55.5,32.8,29.91,SW,223,11.0,17.0,42,0.00,,SKC,0.00,345.00,VWS V14.01,2013-04-04 21:03:00,
2013-04-04 16:08:00,56.3,32.9,29.91,SW,217,5.0,19.0,41,0.00,,SKC,0.00,694.00,VWS V14.01,2013-04-04 21:08:00,
2013-04-04 16:13:00,56.4,32.4,29.91,WSW,241,14.0,20.0,40,0.00,,SKC,0.00,348.00,VWS V14.01,2013-04-04 21:13:00,
2013-04-04 16:19:00,56.3,32.9,29.91,WSW,249,9.0,20.0,41,0.00,,SKC,0.00,309.00,VWS V14.01,2013-04-04 21:19:00,
2013-04-04 16:24:00,56.1,33.3,29.91,SW,229,6.0,19.0,42,0.00,,SKC,0.00,338.00,VWS V14.01,2013-04-04 21:24:00,
2013-04-04 16:29:00,56.3,33.5,29.91,West,267,8.0,19.0,42,0.00,,SKC,0.00,281.00,VWS V14.01,2013-04-04 21:29:00,
2013-04-04 16:34:00,56.3,32.9,29.91,WSW,240,8.0,19.0,41,0.00,,SKC,0.00,271.00,VWS V14.01,2013-04-04 21:34:00,
2013-04-04 16:39:00,56.1,32.7,29.91,SW,229,12.0,19.0,41,0.00,,SKC,0.00,225.00,VWS V14.01,2013-04-04 21:39:00,
2013-04-04 16:44:00,55.9,32.0,29.90,WSW,237,16.0,17.0,40,0.00,,SKC,0.00,176.00,VWS V14.01,2013-04-04 21:44:00,
2013-04-04 16:49:00,55.9,32.6,29.90,WSW,249,6.0,17.0,41,0.00,,SKC,0.00,104.00,VWS V14.01,2013-04-04 21:49:00,
2013-04-04 16:54:00,55.8,32.5,29.90,WSW,246,11.0,17.0,41,0.00,,SKC,0.00,97.00,VWS V14.01,2013-04-04 21:54:00,
2013-04-04 16:59:00,55.7,33.0,29.90,WSW,251,13.0,17.0,42,0.00,,SKC,0.00,84.00,VWS V14.01,2013-04-04 21:59:00,
2013-04-04 17:04:00,55.5,32.8,29.90,WSW,246,14.0,14.0,42,0.00,,SKC,0.00,74.00,VWS V14.01,2013-04-04 22:04:00,
2013-04-04 17:09:00,55.3,32.6,29.90,WSW,248,6.0,15.0,42,0.00,,SKC,0.00,69.00,VWS V14.01,2013-04-04 22:09:00,
2013-04-04 17:15:00,55.3,33.2,29.90,WSW,239,13.0,16.0,43,0.00,,SKC,0.00,102.00,VWS V14.01,2013-04-04 22:15:00,
2013-04-04 17:20:00,55.3,33.2,29.90,West,260,8.0,8.0,43,0.00,,SKC,0.00,134.00,VWS V14.01,2013-04-04 22:20:00,
2013-04-04 17:25:00,55.4,33.3,29.91,West,259,7.0,14.0,43,0.00,,SKC,0.00,107.00,VWS V14.01,2013-04-04 22:25:00,
2013-04-04 17:30:00,55.4,33.3,29.91,West,261,13.0,14.0,43,0.00,,SKC,0.00,102.00,VWS V14.01,2013-04-04 22:30:00,
2013-04-04 17:35:00,55.3,33.2,29.91,West,267,9.0,16.0,43,0.00,,SKC,0.00,100.00,VWS V14.01,2013-04-04 22:35:00,
2013-04-04 17:40:00,55.3,33.2,29.91,WSW,240,5.0,8.0,43,0.00,,SKC,0.00,137.00,VWS V14.01,2013-04-04 22:40:00,
2013-04-04 17:45:00,55.4,33.9,29.91,WSW,237,14.0,14.0,44,0.00,,SKC,0.00,163.00,VWS V14.01,2013-04-04 22:45:00,
2013-04-04 17:50:00,55.8,34.2,29.91,WSW,247,14.0,14.0,44,0.00,,SKC,0.00,292.00,VWS V14.01,2013-04-04 22:50:00,
2013-04-04 17:55:00,56.2,34.0,29.91,WSW,256,6.0,14.0,43,0.00,,SKC,0.00,229.00,VWS V14.01,2013-04-04 22:55:00,
2013-04-04 18:00:00,56.4,34.2,29.91,West,270,9.0,12.0,43,0.00,,SKC,0.00,200.00,VWS V14.01,2013-04-04 23:00:00,
2013-04-04 18:05:00,56.2,34.0,29.91,WSW,258,12.0,16.0,43,0.00,,SKC,0.00,202.00,VWS V14.01,2013-04-04 23:05:00,
2013-04-04 18:10:00,55.9,34.3,29.91,West,267,15.0,17.0,44,0.00,,SKC,0.00,214.00,VWS V14.01,2013-04-04 23:10:00,
2013-04-04 18:15:00,55.8,34.8,29.91,WNW,282,12.0,17.0,45,0.00,,SKC,0.00,153.00,VWS V14.01,2013-04-04 23:15:00,
2013-04-04 18:20:00,55.8,34.8,29.91,West,269,6.0,8.0,45,0.00,,SKC,0.00,139.00,VWS V14.01,2013-04-04 23:20:00,
2013-04-04 18:25:00,55.8,34.8,29.91,West,269,7.0,13.0,45,0.00,,SKC,0.00,76.00,VWS V14.01,2013-04-04 23:25:00,
2013-04-04 18:30:00,55.5,34.5,29.91,WNW,290,8.0,11.0,45,0.00,,SKC,0.00,49.00,VWS V14.01,2013-04-04 23:30:00,
2013-04-04 18:35:00,55.1,34.7,29.91,West,259,11.0,13.0,46,0.00,,SKC,0.00,40.00,VWS V14.01,2013-04-04 23:35:00,
2013-04-04 18:40:00,54.9,34.5,29.91,West,277,8.0,8.0,46,0.00,,SKC,0.00,33.00,VWS V14.01,2013-04-04 23:40:00,
2013-04-04 18:45:00,54.7,34.9,29.91,West,271,7.0,12.0,47,0.00,,SKC,0.00,42.00,VWS V14.01,2013-04-04 23:45:00,
2013-04-04 18:50:00,54.7,34.9,29.90,WSW,252,7.0,8.0,47,0.00,,SKC,0.00,53.00,VWS V14.01,2013-04-04 23:50:00,
2013-04-04 18:55:00,54.7,35.4,29.90,West,259,5.0,9.0,48,0.00,,SKC,0.00,46.00,VWS V14.01,2013-04-04 23:55:00,
2013-04-04 19:00:00,54.6,35.3,29.90,West,262,4.0,6.0,48,0.00,,SKC,0.00,39.00,VWS V14.01,2013-04-05 00:00:00,
2013-04-04 19:05:00,54.4,35.1,29.90,West,262,5.0,9.0,48,0.00,,SKC,0.00,26.00,VWS V14.01,2013-04-05 00:05:00,
2013-04-04 19:10:00,54.2,35.0,29.90,West,267,4.0,6.0,48,0.00,,SKC,0.00,19.00,VWS V14.01,2013-04-05 00:10:00,
2013-04-04 19:15:00,54.0,35.3,29.90,West,261,6.0,8.0,49,0.00,,SKC,0.00,12.00,VWS V14.01,2013-04-05 00:15:00,
2013-04-04 19:21:00,53.7,35.5,29.91,West,265,4.0,6.0,50,0.00,,SKC,0.00,7.00,VWS V14.01,2013-04-05 00:21:00,
2013-04-04 19:26:00,53.3,35.7,29.91,WNW,296,8.0,8.0,51,0.00,,SKC,0.00,0.00,VWS V14.01,2013-04-05 00:26:00,
2013-04-04 19:31:00,52.9,35.3,29.91,NW,306,10.0,11.0,51,0.00,,SKC,0.00,0.00,VWS V14.01,2013-04-05 00:31:00,
2013-04-04 19:36:00,52.5,35.4,29.91,NNW,335,6.0,12.0,52,0.00,,SKC,0.00,0.00,VWS V14.01,2013-04-05 00:36:00,
2013-04-04 19:41:00,52.1,35.5,29.91,NW,319,8.0,11.0,53,0.00,,SKC,0.00,0.00,VWS V14.01,2013-04-05 00:41:00,
2013-04-04 19:46:00,51.7,35.6,29.91,NW,318,10.0,14.0,54,0.00,,SKC,0.00,0.00,VWS V14.01,2013-04-05 00:46:00,
2013-04-04 19:51:00,51.4,35.3,29.91,NW,323,7.0,9.0,54,0.00,,SKC,0.00,0.00,VWS V14.01,2013-04-05 00:51:00,
2013-04-04 19:56:00,51.2,35.6,29.91,WNW,299,12.0,12.0,55,0.00,,SKC,0.00,0.00,VWS V14.01,2013-04-05 00:56:00,
2013-04-04 20:01:00,51.0,35.9,29.91,NW,326,9.0,13.0,56,0.00,,SKC,0.00,0.00,VWS V14.01,2013-04-05 01:01:00,
2013-04-04 20:06:00,50.7,35.6,29.91,NW,323,8.0,14.0,56,0.00,,SKC,0.00,0.00,VWS V14.01,2013-04-05 01:06:00,
2013-04-04 20:11:00,50.4,35.8,29.92,NNW,335,7.0,14.0,57,0.00,,SKC,0.00,0.00,VWS V14.01,2013-04-05 01:11:00,
2013-04-04 20:16:00,50.1,35.5,29.92,NNW,328,7.0,14.0,57,0.00,,SKC,0.00,0.00,VWS V14.01,2013-04-05 01:16:00,
2013-04-04 20:21:00,49.8,35.2,29.92,NW,326,7.0,10.0,57,0.00,,SKC,0.00,0.00,VWS V14.01,2013-04-05 01:21:00,
2013-04-04 20:26:00,49.5,35.3,29.92,NNW,331,6.0,10.0,58,0.00,,SKC,0.00,0.00,VWS V14.01,2013-04-05 01:26:00,
2013-04-04 20:31:00,49.4,35.3,29.92,NW,323,5.0,8.0,58,0.00,,SKC,0.00,0.00,VWS V14.01,2013-04-05 01:31:00,
2013-04-04 20:36:00,49.0,34.9,29.92,NW,326,5.0,8.0,58,0.00,,SKC,0.00,0.00,VWS V14.01,2013-04-05 01:36:00,
2013-04-04 20:41:00,48.8,35.1,29.92,NW,324,5.0,7.0,59,0.00,,SKC,0.00,0.00,VWS V14.01,2013-04-05 01:41:00,
2013-04-04 20:47:00,48.6,34.9,29.93,NNW,327,4.0,8.0,59,0.00,,SKC,0.00,0.00,VWS V14.01,2013-04-05 01:47:00,
2013-04-04 20:52:00,48.4,34.8,29.93,NNW,329,4.0,7.0,59,0.00,,SKC,0.00,0.00,VWS V14.01,2013-04-05 01:52:00,
2013-04-04 20:57:00,48.2,35.0,29.93,North,355,5.0,7.0,60,0.00,,SKC,0.00,0.00,VWS V14.01,2013-04-05 01:57:00,
2013-04-04 21:02:00,47.8,34.6,29.93,North,355,7.0,11.0,60,0.00,,SKC,0.00,0.00,VWS V14.01,2013-04-05 02:02:00,
2013-04-04 21:07:00,47.6,34.4,29.93,NNW,346,8.0,13.0,60,0.00,,SKC,0.00,0.00,VWS V14.01,2013-04-05 02:07:00,
2013-04-04 21:12:00,47.5,34.3,29.93,NNW,329,8.0,14.0,60,0.00,,SKC,0.00,0.00,VWS V14.01,2013-04-05 02:12:00,
2013-04-04 21:17:00,47.6,34.0,29.94,North,351,9.0,15.0,59,0.00,,SKC,0.00,0.00,VWS V14.01,2013-04-05 02:17:00,
2013-04-04 21:22:00,47.4,33.8,29.94,NNW,327,8.0,11.0,59,0.00,,SKC,0.00,0.00,VWS V14.01,2013-04-05 02:22:00,
2013-04-04 21:27:00,47.2,33.6,29.94,NNW,342,9.0,11.0,59,0.00,,SKC,0.00,0.00,VWS V14.01,2013-04-05 02:27:00,
2013-04-04 21:32:00,47.0,33.8,29.94,NNW,339,9.0,12.0,60,0.00,,SKC,0.00,0.00,VWS V14.01,2013-04-05 02:32:00,
2013-04-04 21:37:00,46.9,33.8,29.94,North,349,8.0,12.0,60,0.00,,SKC,0.00,0.00,VWS V14.01,2013-04-05 02:37:00,
2013-04-04 21:42:00,46.6,33.5,29.94,NNW,348,8.0,10.0,60,0.00,,SKC,0.00,0.00,VWS V14.01,2013-04-05 02:42:00,
2013-04-04 21:47:00,46.3,33.6,29.94,North,351,6.0,10.0,61,0.00,,SKC,0.00,0.00,VWS V14.01,2013-04-05 02:47:00,
2013-04-04 21:52:00,46.0,33.3,29.95,NNW,336,7.0,9.0,61,0.00,,SKC,0.00,0.00,VWS V14.01,2013-04-05 02:52:00,
2013-04-04 21:57:00,45.8,33.5,29.95,North,360,4.0,10.0,62,0.00,,SKC,0.00,0.00,VWS V14.01,2013-04-05 02:57:00,
2013-04-04 22:02:00,45.5,33.2,29.95,NNW,329,7.0,9.0,62,0.00,,SKC,0.00,0.00,VWS V14.01,2013-04-05 03:02:00,
2013-04-04 22:07:00,45.4,33.6,29.95,NNW,327,5.0,9.0,63,0.00,,SKC,0.00,0.00,VWS V14.01,2013-04-05 03:07:00,
2013-04-04 22:12:00,45.1,33.3,29.95,NNW,329,6.0,9.0,63,0.00,,SKC,0.00,0.00,VWS V14.01,2013-04-05 03:12:00,
2013-04-04 22:17:00,44.8,33.4,29.95,NNW,333,7.0,9.0,64,0.00,,SKC,0.00,0.00,VWS V14.01,2013-04-05 03:17:00,
2013-04-04 22:22:00,44.5,33.1,29.96,NNW,338,4.0,7.0,64,0.00,,SKC,0.00,0.00,VWS V14.01,2013-04-05 03:22:00,
2013-04-04 22:27:00,44.3,33.3,29.96,NNW,327,6.0,8.0,65,0.00,,SKC,0.00,0.00,VWS V14.01,2013-04-05 03:27:00,
2013-04-04 22:32:00,44.2,33.2,29.96,NW,324,7.0,10.0,65,0.00,,SKC,0.00,0.00,VWS V14.01,2013-04-05 03:32:00,
2013-04-04 22:38:00,44.0,33.0,29.95,NNW,343,7.0,10.0,65,0.00,,SKC,0.00,0.00,VWS V14.01,2013-04-05 03:38:00,
2013-04-04 22:43:00,44.0,33.0,29.95,NNW,333,8.0,11.0,65,0.00,,SKC,0.00,0.00,VWS V14.01,2013-04-05 03:43:00,
2013-04-04 22:48:00,44.1,33.1,29.95,NW,325,8.0,13.0,65,0.00,,SKC,0.00,0.00,VWS V14.01,2013-04-05 03:48:00,
2013-04-04 22:53:00,44.3,32.9,29.96,NW,321,9.0,13.0,64,0.00,,SKC,0.00,0.00,VWS V14.01,2013-04-05 03:53:00,
2013-04-04 22:58:00,44.1,32.7,29.96,North,360,6.0,13.0,64,0.00,,SKC,0.00,0.00,VWS V14.01,2013-04-05 03:58:00,
2013-04-04 23:00:00,44.0,32.6,29.96,NNW,335,7.0,13.0,64,0.00,,SKC,0.00,0.00,VWS V14.01,2013-04-05 04:00:00,
2013-04-04 23:05:00,43.8,32.4,29.96,NNW,333,7.0,11.0,64,0.00,,SKC,0.00,0.00,VWS V14.01,2013-04-05 04:05:00,
2013-04-04 23:10:00,43.8,32.4,29.96,North,350,9.0,9.0,64,0.00,,SKC,0.00,0.00,VWS V14.01,2013-04-05 04:10:00,
2013-04-04 23:15:00,43.7,32.3,29.96,NNW,332,8.0,12.0,64,0.00,,SKC,0.00,0.00,VWS V14.01,2013-04-05 04:15:00,
2013-04-04 23:20:00,43.8,32.0,29.96,NW,312,11.0,13.0,63,0.00,,SKC,0.00,0.00,VWS V14.01,2013-04-05 04:20:00,
2013-04-04 23:25:00,43.7,32.0,29.96,North,5,10.0,15.0,63,0.00,,SKC,0.00,0.00,VWS V14.01,2013-04-05 04:25:00,
2013-04-04 23:30:00,43.6,31.5,29.96,NNW,348,10.0,13.0,62,0.00,,SKC,0.00,0.00,VWS V14.01,2013-04-05 04:30:00,
2013-04-04 23:35:00,43.4,31.3,29.96,NW,319,8.0,15.0,62,0.00,,SKC,0.00,0.00,VWS V14.01,2013-04-05 04:35:00,
2013-04-04 23:40:00,43.3,31.2,29.96,NNW,336,10.0,14.0,62,0.00,,SKC,0.00,0.00,VWS V14.01,2013-04-05 04:40:00,
2013-04-04 23:46:00,43.1,31.4,29.96,NNW,329,8.0,14.0,63,0.00,,SKC,0.00,0.00,VWS V14.01,2013-04-05 04:46:00,
2013-04-04 23:51:00,42.7,31.0,29.96,NW,315,6.0,9.0,63,0.00,,SKC,0.00,0.00,VWS V14.01,2013-04-05 04:51:00,
2013-04-04 23:56:00,42.4,30.7,29.96,NNW,327,9.0,12.0,63,0.00,,SKC,0.00,0.00,VWS V14.01,2013-04-05 04:56:00,